Change the Weather History Date:

Wednesday, January 9, 2013

  Actual Average Record
Temperature  
Mean Temperature 42 °F 41 °F  
Max Temperature 51 °F 47 °F 61 °F (1990)
Min Temperature 32 °F 35 °F 4 °F (1909)
Degree Days  
Heating Degree Days 23 24  
Month to date heating degree days 222 223  
Since 1 July heating degree days 1834 2112  
Cooling Degree Days 0 0  
Month to date cooling degree days 0 0  
Year to date cooling degree days 0 0  
Moisture  
Dew Point 38 °F    
Average Humidity 90    
Maximum Humidity 100    
Minimum Humidity 80    
Precipitation  
Precipitation 0.29 in 0.21 in 1.24 in (1968)
Month to date precipitation 0.50 1.87  
Year to date precipitation 0.50 1.87  
Snow  
Snow 0.00 in - - ()
Month to date snowfall 0.0  
Snow Depth 0.00 in    
Sea Level Pressure  
Sea Level Pressure 29.93 in    
Wind  
Wind Speed 8 mph (SSW)    
Max Wind Speed 28 mph    
Max Gust Speed 38 mph    
Visibility 9 miles    
Events Rain    
T = Trace of Precipitation, MM = Missing Value Source: NWS Daily Summary

Daily Weather History Graph

Daily Weather History Graph

Search for Another Location

Airport or City:

Trip Planner

Search our weather history database for the weather conditions in past years. The results will help you decide how hot, cold, wet, or windy it might be!

Date:

Astronomy

Jan. 09, 2013 Rise Set
Actual Time 7:48 AM PST 4:50 PM PST
Civil Twilight 7:15 AM PST 5:23 PM PST
Nautical Twilight 6:39 AM PST 5:59 PM PST
Astronomical Twilight 6:03 AM PST 6:35 PM PST
Moon 5:34 AM PST (1/9) 2:57 PM PST (1/9)
Length of Visible Light 10h 07m
Length of Day
9h 01m
Waning Crescent, 6% of the Moon is Illuminated
Jan 9
Waning Crescent
Jan 11
New
Jan 18
First Quarter
Jan 26
Full
Feb 3
Last Quarter

Hourly Weather History & Observations

Time (PST) Temp. Windchill Dew Point Humidity Pressure Visibility Wind Dir Wind Speed Gust Speed Precip Events Conditions
12:56 AM 48.9 °F - 45.0 °F 86% 29.91 in 10.0 mi South 8.1 mph - N/A   Clear
1:56 AM 50.0 °F - 44.1 °F 80% 29.90 in 10.0 mi South 9.2 mph 17.3 mph N/A   Clear
2:56 AM 48.9 °F - 44.1 °F 83% 29.86 in 10.0 mi SSE 16.1 mph - N/A   Clear
3:56 AM 50.0 °F - 44.1 °F 80% 29.82 in 10.0 mi SSE 16.1 mph 23.0 mph N/A   Partly Cloudy
6:56 AM 46.4 °F 39.2 °F 42.8 °F 87% 29.78 in 10.0 mi WSW 18.4 mph 29.9 mph N/A Rain Light Rain
7:49 AM 44.6 °F 39.2 °F 41.0 °F 87% 29.83 in 10.0 mi West 10.4 mph - 0.01 in Rain Light Rain
7:56 AM 43.0 °F 36.8 °F 39.0 °F 86% 29.83 in 10.0 mi West 11.5 mph - 0.01 in Rain Light Rain
8:56 AM 42.1 °F 37.7 °F 39.0 °F 89% 29.88 in 7.0 mi SW 6.9 mph - 0.01 in Rain Light Rain
9:56 AM 42.1 °F 35.7 °F 37.9 °F 85% 29.90 in 10.0 mi SSW 11.5 mph - 0.00 in   Overcast
10:43 AM 42.8 °F 37.0 °F 37.4 °F 81% 29.91 in 10.0 mi SW 10.4 mph - 0.00 in   Overcast
10:56 AM 42.1 °F 39.2 °F 37.9 °F 85% 29.92 in 10.0 mi WSW 4.6 mph - 0.00 in   Overcast
11:56 AM 42.1 °F 39.2 °F 39.0 °F 89% 29.93 in 9.0 mi South 4.6 mph - 0.02 in Rain Light Rain
12:56 PM 43.0 °F 38.2 °F 39.0 °F 86% 29.92 in 10.0 mi South 8.1 mph - 0.00 in   Overcast
1:38 PM 41.0 °F 35.2 °F 37.4 °F 87% 29.93 in 5.0 mi SSW 9.2 mph 24.2 mph 0.02 in Rain Heavy Rain
1:56 PM 41.0 °F 36.4 °F 36.0 °F 82% 29.94 in 7.0 mi WSW 6.9 mph - 0.03 in Rain Light Rain
2:52 PM 42.8 °F - 37.4 °F 81% 29.95 in 10.0 mi Calm Calm - 0.00 in Rain Light Rain
2:56 PM 42.1 °F 37.1 °F 37.9 °F 85% 29.96 in 7.0 mi SSW 8.1 mph - 0.00 in Rain Light Rain
3:17 PM 42.8 °F 38.6 °F 39.2 °F 87% 29.95 in 7.0 mi South 6.9 mph - 0.01 in Rain Light Rain
3:56 PM 41.0 °F 36.4 °F 37.9 °F 89% 29.96 in 10.0 mi SSE 6.9 mph - 0.01 in   Mostly Cloudy
4:56 PM 39.9 °F 33.9 °F 37.0 °F 89% 29.96 in 10.0 mi South 9.2 mph - 0.00 in   Mostly Cloudy
5:36 PM 37.4 °F 31.4 °F 33.8 °F 87% 29.96 in 5.0 mi SSW 8.1 mph - 0.02 in Rain Rain
6:56 PM 34.0 °F - 33.1 °F 96% 29.97 in 10.0 mi Calm Calm - N/A   Mostly Cloudy
7:56 PM 34.0 °F - 34.0 °F 100% 29.99 in 10.0 mi Calm Calm - N/A   Overcast
8:56 PM 32.0 °F 28.7 °F 32.0 °F 100% 29.99 in 10.0 mi South 3.5 mph - N/A   Mostly Cloudy
9:27 PM 33.8 °F - 33.8 °F 100% 29.99 in 10.0 mi Calm Calm - N/A   Overcast
9:36 PM 35.6 °F - 35.6 °F 100% 29.99 in 10.0 mi Calm Calm - N/A   Overcast
9:47 PM 35.6 °F - 35.6 °F 100% 29.99 in 8.0 mi Calm Calm - 0.01 in Rain Rain
9:56 PM 34.0 °F - 34.0 °F 100% 30.01 in 4.0 mi Calm Calm - 0.02 in Rain Rain
10:04 PM 33.8 °F 30.8 °F 33.8 °F 100% 30.00 in 3.0 mi SE 3.5 mph - 0.04 in Rain Heavy Rain
11:56 PM 35.1 °F 31.0 °F 34.0 °F 96% 29.99 in 10.0 mi South 4.6 mph - 0.00 in   Partly Cloudy